Regional Weather Roundup
Issued by NWS

Home | Current Version | Previous Version | Graphics & Text | Print | Product List | Glossary On
Versions: 1 2 3 4 5 6 7 8 9 10 11 12 13 14 15 16 17 18 19 20 21 22 23 24 25 26 27
000
ASUS45 KSLC 231010
RWRUT

UTAH REGIONAL WEATHER ROUNDUP
NATIONAL WEATHER SERVICE SALT LAKE CITY UT
400 AM MDT MON APR 23 2018

UTZ001>011-023>025-231100-

NORTHERN UTAH

CITY           SKY/WX    TMP DP  RH WIND       PRES   REMARKS
BRIGHAM CITY   CLOUDY    52  36  54 N39G46    30.06R
HILL AFB       CLOUDY    52  37  57 N31G43    30.01R
LOGAN            N/A     51  38  60 N26G37    30.05R
OGDEN          CLOUDY    52  38  58 MISG      29.98R
SALT LAKE CITY   N/A     56  40  55 NW26G37   30.00R
TOOELE VALLEY    N/A     54  39  58 N14G22    30.06R
WENDOVER       MOCLDY    58  31  35 NW22G28   30.00R
HEBER CITY       N/A     43  32  65 E9        29.98F
WEST JORDAN    MOCLDY    55  40  59 NW30G40   30.00R

$$

UTZ011>015-024>027-231100-

CENTRAL/NORTHEAST UTAH

CITY           SKY/WX    TMP DP  RH WIND       PRES   REMARKS
PROVO AIRPORT    N/A     55  33  43 SE14      29.96S
MOAB/CANYONLAN   N/A     49  25  39 CALM      29.97R
DELTA            N/A     52  30  43 S14       29.96S
PRICE            N/A     49  25  39 VRB3      30.03S
ROOSEVELT        N/A     41  32  70 SW6       30.02S
VERNAL           N/A     50  34  54 SW6       30.00S

$$

UTZ013>016-019>022-027-231100-

SOUTHERN UTAH

CITY           SKY/WX    TMP DP  RH WIND       PRES   REMARKS
BRYCE CANYON     N/A     30  20  66 W3        30.17S
CEDAR CITY       N/A     50  27  40 SE8       30.05R
MILFORD          N/A     52  27  38 W14       30.01R
ST GEORGE        N/A     61  24  24 SE7       29.95
HANKSVILLE       N/A     50  19  29 CALM      30.01R
BLANDING         N/A     43  21  42 N3        30.16R

$$

REGIONAL REPORTS     COLORADO/ARIZONA

CITY           SKY/WX    TMP DP  RH WIND       PRES   REMARKS
CRAIG, CO        N/A     34  30  85 CALM      30.08S
GRAND JUNCTION   N/A     48  32  53 SE9       30.03R
RIFLE, CO        N/A     43  36  76 SW3       30.08R
MONTROSE, CO     N/A     43  30  60 SE6       30.10R
CORTEZ, CO       N/A     32  21  64 E5        30.11S WCI  27
COLORADO CITY    N/A     41  28  60 S5        30.08S
PAGE, AZ         N/A     57  25  29 W3        30.00R
GRAND CANYON     N/A     31  17  56 CALM      30.17R
KINGMAN, AZ      N/A     56  18  22 SE6       29.99R
FLAGSTAFF, AZ    N/A     36  16  44 CALM      30.18S

$$

REGIONAL REPORTS    NEVADA/IDAHO/WYOMING

CITY           SKY/WX    TMP DP  RH WIND       PRES   REMARKS
LAS VEGAS, NV    N/A     75  26  16 S8        29.87S
ELY, NY          N/A     41  27  57 SE3       30.11R
ELKO, NV         N/A     42  32  67 NW3       30.12R
POCATELLO, ID    N/A     45  40  82 S6        30.07R
BURLEY, ID       N/A     41  26  55 W14G28    30.06R
FORT BRIDGER,    N/A     49  24  37 W10       30.07R
EVANSTON, WY     N/A     45  27  49 W9        30.05S
ROCK SPRINGS,    N/A     48  26  42 E8        30.02F
KEMMERER, WY     N/A     37  27  65 NW9       30.07R WCI  31

$$




USA.gov is the U.S. government's official web portal to all federal, state and local government web resources and services.